Regional Weather Roundup
Issued by NWS Burlington, VT

Home | Current Version | Previous Version | Text Only | Print | Product List | Glossary On
Versions: 1 2 3 4 5 6 7 8 9 10 11 12 13 14 15 16 17 18 19 20 21 22 23 24 25 26 27 28 29 30 31 32 33 34 35 36 37 38 39 40 41 42 43 44 45 46 47 48 49 50
000
ASUS41 KBTV 271730
RWRBTV
VERMONT REGIONAL WEATHER ROUNDUP
NATIONAL WEATHER SERVICE BURLINGTON VT
1200 PM EST TUE JAN 27 2015

NOTE: "FAIR" INDICATES FEW OR NO CLOUDS BELOW 12,000 FEET WITH NO
SIGNIFICANT WEATHER AND/OR OBSTRUCTIONS TO VISIBILITY.

* THESE REPORTS ARE NOT UNDER NWS QUALITY CONTROL AND/OR DO NOT
  REPORT WEATHER SUCH AS PRECIPITATION AND FOG.

VTZ001>019-271800-
_____VERMONT_____


CITY           SKY/WX    TMP DP  RH WIND       PRES   REMARKS
BURLINGTON     LGT SNOW   8  -3  61 N17G29    29.93F WCI -10
MONTPELIER     HVY SNOW   6   2  83 N15G26    29.80F VSB 1/4 WCI -12
MORRISVILLE    LGT SNOW   9   2  73 N9        29.86F VSB 3/4
ST. JOHNSBURY*   N/A      8   3  80 MISG      29.77F
MIDDLEBURY*    SNOW       7   2  80 N16G26    29.84F VSB 1/2 WCI -11
RUTLAND*       CLOUDY   N/A N/A N/A N17G23    29.74F VSB 1/2
SPRINGFIELD    LGT SNOW  15   6  67 NE8G18    29.67F
HIGHGATE*      CLOUDY     8  -5  56 N20G25    29.97F WCI -11
NEWPORT*       SNOW       4  -1  80 N20G25    29.86F VSB 1/2 WCI -16
BENNINGTON     LGT SNOW  10   4  76 N14G21    29.72S VSB 3/4 WCI  -6
GALLUP MILLS*    N/A      9 N/A N/A MISG        N/A
UNION VILLAGE*   N/A     14 N/A N/A MISG        N/A
MT. MANSFIELD*   N/A      5 N/A N/A CALM        N/A

_____LAKE CHAMPLAIN_____


CITY           SKY/WX    TMP DP  RH WIND       PRES   REMARKS
BURTON ISLAND*   N/A     10   1  67 N8          N/A
COLCHESTER RF*   N/A     10   3  72 N33         N/A  WCI -13
DIAMOND ISL*     N/A     12   5  73 NW35        N/A  WCI -10

$$

NYZ007-026>031-035-052-083-271800-
_____NORTHERN NEW YORK_____


CITY           SKY/WX    TMP DP  RH WIND       PRES   REMARKS
PLATTSBURGH    CLOUDY     9  -4  55 N24G32    29.99F WCI -12
SARANAC LAKE   PTSUNNY    7  -8  50 NE14      29.80F WCI -10
MASSENA        SUNNY      9  -3  58 NE20      30.08F WCI -10
OGDENSBURG*    SUNNY     16  -2  45 NE17G23   30.04F WCI   0
POTSDAM*       SUNNY      9   0  66 NE17G23   30.01F WCI -10
STARK FALLS*     N/A      9 N/A N/A N5          N/A
WATERTOWN      SUNNY     13  -1  54 N18       30.00F WCI  -4
FT DRUM        SUNNY      8  -4  59 NE21      29.95F WCI -12
ALBANY         SNOW      13   7  77 N8        29.82F VSB 1/2
GLENS FALLS    SNOW      12   7  80 NE6       29.82F VSB 1/2

$$
NHZ002-005-011-271800-
_____NEW HAMPSHIRE_____


CITY           SKY/WX    TMP DP  RH WIND       PRES   REMARKS
LEBANON        CLOUDY    12   5  73 NW14G20   29.69F WCI  -3
KEENE          CLOUDY    14   9  79 N18G25    29.61F VSB 3/4 WCI  -3
MT WASHINGTON  SNOW       0   0 100 NE91G107    N/A  VSB 1/16WCI -37
PLYMOUTH       SNOW      17  16  96 W13G20    29.61F VSB 1/4 WCI   3
WHITEFIELD     SNOW      12   7  80 MISG      29.69F VSB 1/2

$$

_____REGIONAL QUEBEC LOCATIONS_____


CITY           SKY/WX    TMP DP  RH WIND       PRES   REMARKS
MONTREAL       CLOUDY     9  -4  56 N28G36    30.07F WCI -13
QUEBEC CITY    CLOUDY     9  -8  47 NE24G36   30.09F WCI -12
SHERBROOKE     LGT SNOW   5  -2  72 NE14G21   29.90S WCI -12

_____REGIONAL ONTARIO LOCATIONS_____


CITY           SKY/WX    TMP DP  RH WIND       PRES   REMARKS
OTTAWA         PTSUNNY   10  -6  48 N12       30.09F WCI  -4

______KEY______
VSB  - VISIBILITY IN MILES
WCI  - WIND CHILL INDEX
HX   - HEAT INDEX
$$
NNNN


USA.gov is the U.S. government's official web portal to all federal, state and local government web resources and services.